Location: Jangalapalle
(16.8036°N, 80.6370°E)
Time: 11:24:20
(UTC+00:00)

SL-08 RB Rocket - Pass Details

Date: 05 August 2024
Orbit: 638 x 674 km, 97.8° (Epoch: 09 September)

Event Time Altitude Azimuth Distance (km) Brightness Sun altitude
Rises 23:46:05 0° 3° (N) 3,014 7.4 -8.3°
Reaches altitude 10° 23:48:22 10° 358° (N) 2,095 6.5 -7.8°
Maximum altitude 23:52:47 49° 283° (WNW) 854 4.0 -6.8°
Drops below altitude 10° 23:57:09 10° 209° (SSW) 2,072 5.8 -5.8°
Sets 23:59:25 0° 203° (SSW) 2,976 6.7 -5.3°
